TimeEDT,TemperatureF,Dew PointF,Humidity,Sea Level PressureIn,VisibilityMPH,Wind Direction,Wind SpeedMPH,Gust SpeedMPH,PrecipitationIn,Events,Conditions,WindDirDegrees,DateUTC
12:52 AM,46.9,37.9,71,30.09,10.0,Calm,Calm,-,N/A,,Overcast,0,2012-03-13 04:52:00
1:52 AM,46.9,41.0,80,30.07,10.0,Calm,Calm,-,0.00,,Overcast,0,2012-03-13 05:52:00
2:52 AM,48.0,41.0,77,30.08,10.0,East,3.5,-,0.00,,Overcast,100,2012-03-13 06:52:00
3:52 AM,48.0,39.9,74,30.05,10.0,Calm,Calm,-,0.00,Rain,Light Rain,0,2012-03-13 07:52:00
4:52 AM,46.0,42.1,86,30.04,10.0,Calm,Calm,-,0.00,,Overcast,0,2012-03-13 08:52:00
5:52 AM,45.0,43.0,93,30.04,10.0,Calm,Calm,-,0.01,Rain,Light Rain,0,2012-03-13 09:52:00
6:52 AM,45.0,44.1,97,30.03,10.0,Calm,Calm,-,0.00,,Overcast,0,2012-03-13 10:52:00
7:52 AM,46.0,45.0,96,30.03,5.0,SSW,4.6,-,0.03,Rain,Light Rain,200,2012-03-13 11:52:00
8:29 AM,46.4,46.4,100,30.01,5.0,South,4.6,-,0.00,,Mostly Cloudy,190,2012-03-13 12:29:00
8:47 AM,48.2,46.4,93,30.01,6.0,Calm,Calm,-,0.00,,Overcast,0,2012-03-13 12:47:00
8:52 AM,48.0,46.9,96,30.01,6.0,Calm,Calm,-,0.00,,Overcast,0,2012-03-13 12:52:00
9:52 AM,48.9,46.9,93,30.01,9.0,Calm,Calm,-,N/A,,Clear,0,2012-03-13 13:52:00
10:52 AM,53.1,48.9,86,29.99,10.0,SSE,8.1,-,N/A,,Clear,160,2012-03-13 14:52:00
11:52 AM,57.0,50.0,77,29.98,10.0,SSE,5.8,-,N/A,,Overcast,160,2012-03-13 15:52:00
12:52 PM,60.1,51.1,72,29.94,10.0,South,8.1,-,N/A,,Overcast,170,2012-03-13 16:52:00
1:52 PM,64.0,51.1,63,29.92,10.0,South,9.2,-,N/A,,Scattered Clouds,180,2012-03-13 17:52:00
2:52 PM,66.0,52.0,60,29.88,10.0,South,13.8,-,N/A,,Clear,180,2012-03-13 18:52:00
3:52 PM,68.0,52.0,56,29.86,10.0,South,15.0,-,N/A,,Partly Cloudy,180,2012-03-13 19:52:00
4:52 PM,68.0,52.0,56,29.87,10.0,South,8.1,-,N/A,,Mostly Cloudy,170,2012-03-13 20:52:00
5:52 PM,68.0,52.0,56,29.88,10.0,West,6.9,-,N/A,,Overcast,260,2012-03-13 21:52:00
6:52 PM,61.0,53.1,75,29.90,10.0,Calm,Calm,-,N/A,,Clear,0,2012-03-13 22:52:00
7:52 PM,55.9,52.0,87,29.92,10.0,Calm,Calm,-,N/A,,Scattered Clouds,0,2012-03-13 23:52:00
8:52 PM,53.1,51.1,93,29.95,10.0,Calm,Calm,-,N/A,,Overcast,0,2012-03-14 00:52:00
9:52 PM,53.1,51.1,93,29.95,10.0,Calm,Calm,-,N/A,,Overcast,0,2012-03-14 01:52:00
10:52 PM,50.0,48.9,96,29.95,8.0,North,4.6,-,N/A,,Mostly Cloudy,350,2012-03-14 02:52:00
11:21 PM,51.8,48.2,88,29.95,8.0,Calm,Calm,-,N/A,Thunderstorm,Mostly Cloudy,0,2012-03-14 03:21:00
11:52 PM,53.1,51.1,93,29.96,4.0,NNW,6.9,-,0.05,Rain-Thunderstorm,Thunderstorms and Rain,340,2012-03-14 03:52:00